| time (UTC) | temp F | wind direction | speed MPH | gust MPH | rain 1hr in | rain 24hr in | rain mn in | humidity % | barometer mb |
| 20260507025007 | 62 | 81 | 2.0 | 4.0 | 0.00 | 0.00 | 0.00 | 79 | 1020.9 |
| 20260507024006 | 63 | 15 | 2.0 | 5.0 | 0.00 | 0.00 | 0.00 | 77 | 1020.8 |
| 20260507023007 | 64 | 330 | 2.0 | 3.0 | 0.00 | 0.00 | 0.00 | 76 | 1020.8 |
| 20260507022008 | 63 | 19 | 3.0 | 4.0 | 0.00 | 0.00 | 0.00 | 77 | 1020.7 |
| 20260507021012 | 63 | 10 | 2.0 | 4.0 | 0.00 | 0.00 | 0.00 | 78 | 1020.6 |
| 20260507020006 | 63 | 317 | 3.0 | 4.0 | 0.00 | 0.00 | 0.00 | 77 | 1020.7 |
| 20260507015009 | 64 | 4 | 2.0 | 3.0 | 0.00 | 0.00 | 0.00 | 75 | 1020.7 |
| 20260507014007 | 65 | 308 | 3.0 | 5.0 | 0.00 | 0.00 | 0.00 | 74 | 1020.8 |
| 20260507013007 | 64 | 21 | 3.0 | 5.0 | 0.00 | 0.00 | 0.00 | 77 | 1020.7 |
| 20260507012008 | 64 | 332 | 2.0 | 3.0 | 0.00 | 0.00 | 0.00 | 76 | 1020.8 |
| 20260507011007 | 64 | 28 | 3.0 | 6.0 | 0.00 | 0.00 | 0.00 | 76 | 1020.8 |
| 20260507010007 | 66 | 11 | 2.0 | 4.0 | 0.00 | 0.00 | 0.00 | 74 | 1020.7 |
| 20260507005006 | 67 | 358 | 2.0 | 3.0 | 0.00 | 0.00 | 0.00 | 73 | 1020.7 |
| 20260507004006 | 67 | 21 | 2.0 | 4.0 | 0.00 | 0.00 | 0.00 | 73 | 1020.6 |
| 20260507003006 | 69 | 346 | 3.0 | 5.0 | 0.00 | 0.00 | 0.00 | 70 | 1020.6 |
| 20260507002013 | 68 | 322 | 3.0 | 5.0 | 0.00 | 0.00 | 0.00 | 72 | 1020.5 |
| 20260507001006 | 67 | 342 | 2.0 | 3.0 | 0.00 | 0.00 | 0.00 | 74 | 1020.6 |
| 20260507000007 | 68 | 354 | 2.0 | 4.0 | 0.00 | 0.00 | 0.00 | 74 | 1020.6 |
| 20260506235005 | 67 | 42 | 2.0 | 3.0 | 0.00 | 0.00 | 0.00 | 75 | 1020.6 |
| 20260506234005 | 68 | 320 | 2.0 | 4.0 | 0.00 | 0.00 | 0.00 | 76 | 1020.5 |
| 20260506233008 | 68 | 345 | 2.0 | 3.0 | 0.00 | 0.00 | 0.00 | 76 | 1020.5 |
| 20260506232008 | 68 | 32 | 2.0 | 4.0 | 0.00 | 0.00 | 0.00 | 75 | 1020.5 |
| 20260506231009 | 69 | 12 | 2.0 | 5.0 | 0.00 | 0.00 | 0.00 | 74 | 1020.6 |
| 20260506230006 | 69 | 306 | 1.0 | 3.0 | 0.00 | 0.00 | 0.00 | 74 | 1020.5 |
| 20260506225008 | 69 | 356 | 2.0 | 3.0 | 0.00 | 0.00 | 0.00 | 72 | 1020.7 |
| 20260506224006 | 71 | 318 | 1.0 | 2.0 | 0.00 | 0.00 | 0.00 | 71 | 1020.8 |
| 20260506223007 | 72 | 345 | 1.0 | 4.0 | 0.00 | 0.00 | 0.00 | 71 | 1020.8 |
| 20260506222005 | 73 | 319 | 2.0 | 4.0 | 0.00 | 0.00 | 0.00 | 68 | 1020.8 |
| 20260506221008 | 70 | 355 | 2.0 | 4.0 | 0.00 | 0.00 | 0.00 | 73 | 1020.9 |
| 20260506220010 | 69 | 8 | 2.0 | 3.0 | 0.00 | 0.00 | 0.00 | 73 | 1020.9 |
| 20260506215010 | 70 | 13 | 3.0 | 5.0 | 0.00 | 0.00 | 0.00 | 71 | 1020.9 |
| 20260506214010 | 73 | 3 | 3.0 | 4.0 | 0.00 | 0.00 | 0.00 | 68 | 1020.8 |
| 20260506213009 | 70 | 253 | 2.0 | 3.0 | 0.00 | 0.00 | 0.00 | 70 | 1020.9 |
| 20260506212008 | 70 | 7 | 1.0 | 4.0 | 0.00 | 0.00 | 0.00 | 68 | 1020.9 |
| 20260506211006 | 71 | 203 | 0.0 | 2.0 | 0.00 | 0.00 | 0.00 | 71 | 1021.0 |
| 20260506210006 | 69 | 308 | 2.0 | 3.0 | 0.00 | 0.00 | 0.00 | 70 | 1021.1 |
| 20260506205007 | 68 | 227 | 2.0 | 3.0 | 0.00 | 0.00 | 0.00 | 71 | 1021.2 |
| 20260506204010 | 68 | 238 | 2.0 | 3.0 | 0.00 | 0.00 | 0.00 | 73 | 1021.2 |
| 20260506203005 | 69 | 209 | 2.0 | 4.0 | 0.00 | 0.00 | 0.00 | 73 | 1021.2 |
| 20260506202007 | 68 | 221 | 2.0 | 3.0 | 0.00 | 0.00 | 0.00 | 74 | 1021.2 |
| 20260506201010 | 67 | 177 | 2.0 | 3.0 | 0.00 | 0.00 | 0.00 | 74 | 1021.1 |
| 20260506200006 | 68 | 310 | 2.0 | 3.0 | 0.00 | 0.00 | 0.00 | 75 | 1021.2 |
| 20260506195012 | 67 | 245 | 3.0 | 5.0 | 0.00 | 0.00 | 0.00 | 75 | 1021.4 |
| 20260506194008 | 69 | 140 | 3.0 | 5.0 | 0.00 | 0.00 | 0.00 | 72 | 1021.4 |
| 20260506193006 | 69 | 158 | 2.0 | 4.0 | 0.00 | 0.00 | 0.00 | 76 | 1021.4 |
| 20260506192007 | 66 | 43 | 1.0 | 4.0 | 0.00 | 0.00 | 0.00 | 79 | 1021.6 |
| 20260506191008 | 65 | 360 | 1.0 | 2.0 | 0.00 | 0.00 | 0.00 | 80 | 1021.6 |
| 20260506190009 | 64 | 315 | 2.0 | 4.0 | 0.00 | 0.00 | 0.00 | 81 | 1021.6 |
| 20260506185011 | 64 | 146 | 0.0 | 2.0 | 0.00 | 0.00 | 0.00 | 83 | 1021.6 |
| 20260506184009 | 63 | 203 | 0.0 | 3.0 | 0.00 | 0.00 | 0.00 | 80 | 1021.6 |
| 20260506183008 | 64 | 217 | 1.0 | 3.0 | 0.00 | 0.00 | 0.00 | 79 | 1021.5 |
| 20260506182008 | 64 | 252 | 2.0 | 3.0 | 0.00 | 0.00 | 0.00 | 79 | 1021.5 |
| 20260506181011 | 63 | 272 | 2.0 | 3.0 | 0.00 | 0.00 | 0.00 | 81 | 1021.4 |
| 20260506180007 | 63 | 1 | 1.0 | 2.0 | 0.00 | 0.00 | 0.00 | 82 | 1021.5 |
| 20260506175010 | 63 | 0.0 | 0.0 | 0.00 | 0.00 | 0.00 | 82 | 1021.5 | |
| 20260506174009 | 62 | 239 | 2.0 | 2.0 | 0.00 | 0.00 | 0.00 | 81 | 1021.5 |
| 20260506173006 | 62 | 8 | 0.0 | 2.0 | 0.00 | 0.00 | 0.00 | 82 | 1021.4 |
| 20260506172006 | 61 | 219 | 1.0 | 2.0 | 0.00 | 0.00 | 0.00 | 83 | 1021.3 |
| 20260506171007 | 61 | 180 | 1.0 | 2.0 | 0.00 | 0.00 | 0.00 | 84 | 1021.4 |
| 20260506170008 | 61 | 180 | 1.0 | 3.0 | 0.00 | 0.00 | 0.00 | 83 | 1021.3 |
| 20260506165012 | 60 | 0.0 | 0.0 | 0.00 | 0.00 | 0.00 | 86 | 1021.3 | |
| 20260506164008 | 60 | 0.0 | 0.0 | 0.00 | 0.00 | 0.00 | 85 | 1021.3 | |
| 20260506163006 | 59 | 180 | 0.0 | 2.0 | 0.00 | 0.00 | 0.00 | 88 | 1021.5 |
| 20260506162007 | 59 | 0.0 | 0.0 | 0.00 | 0.00 | 0.00 | 87 | 1021.5 | |
| 20260506161007 | 59 | 180 | 0.0 | 1.0 | 0.00 | 0.00 | 0.00 | 89 | 1021.4 |
| 20260506160014 | 59 | 180 | 1.0 | 3.0 | 0.00 | 0.00 | 0.00 | 89 | 1021.3 |
| 20260506155007 | 58 | 0.0 | 0.0 | 0.00 | 0.00 | 0.00 | 90 | 1020.9 | |
| 20260506154005 | 58 | 180 | 1.0 | 3.0 | 0.00 | 0.00 | 0.00 | 90 | 1020.8 |
| 20260506153008 | 58 | 180 | 1.0 | 2.0 | 0.00 | 0.00 | 0.00 | 90 | 1020.8 |
| 20260506152009 | 58 | 180 | 1.0 | 2.0 | 0.00 | 0.00 | 0.00 | 89 | 1020.8 |
| 20260506151011 | 57 | 180 | 1.0 | 2.0 | 0.00 | 0.00 | 0.00 | 90 | 1020.8 |
| 20260506150008 | 57 | 0.0 | 0.0 | 0.00 | 0.00 | 0.00 | 92 | 1021.2 | |
| 20260506145007 | 57 | 0.0 | 1.0 | 0.00 | 0.00 | 0.00 | 94 | 1021.3 | |
| 20260506144009 | 56 | 180 | 0.0 | 3.0 | 0.00 | 0.00 | 0.00 | 96 | 1021.2 |
| 20260506143006 | 56 | 180 | 0.0 | 2.0 | 0.00 | 0.00 | 0.00 | 96 | 1021.2 |
| 20260506142008 | 56 | 0.0 | 1.0 | 0.00 | 0.00 | 0.00 | 97 | 1021.0 | |
| 20260506141012 | 56 | 0.0 | 0.0 | 0.00 | 0.00 | 0.00 | 98 | 1020.8 | |
| 20260506140006 | 55 | 0.0 | 0.0 | 0.00 | 0.00 | 0.00 | 98 | 1020.3 | |
| 20260506135009 | 55 | 0.0 | 0.0 | 0.00 | 0.00 | 0.00 | 98 | 1020.3 | |
| 20260506134007 | 54 | 0.0 | 0.0 | 0.00 | 0.00 | 0.00 | 98 | 1020.4 | |
| 20260506133006 | 54 | 0.0 | 0.0 | 0.00 | 0.00 | 0.00 | 98 | 1020.3 | |
| 20260506132010 | 53 | 0.0 | 0.0 | 0.00 | 0.00 | 0.00 | 98 | 1020.2 | |
| 20260506131008 | 53 | 0.0 | 0.0 | 0.00 | 0.00 | 0.00 | 97 | 1020.2 | |
| 20260506130007 | 53 | 0.0 | 0.0 | 0.00 | 0.00 | 0.00 | 96 | 1020.0 | |
| 20260506125009 | 53 | 0.0 | 0.0 | 0.00 | 0.00 | 0.00 | 95 | 1019.9 | |
| 20260506124007 | 53 | 0.0 | 0.0 | 0.00 | 0.00 | 0.00 | 95 | 1019.8 | |
| 20260506123008 | 54 | 0.0 | 0.0 | 0.00 | 0.00 | 0.00 | 94 | 1019.7 | |
| 20260506122009 | 55 | 0.0 | 0.0 | 0.00 | 0.00 | 0.00 | 94 | 1019.6 | |
| 20260506121007 | 55 | 0.0 | 0.0 | 0.00 | 0.00 | 0.00 | 95 | 1019.7 | |
| 20260506120007 | 56 | 0.0 | 0.0 | 0.00 | 0.00 | 0.00 | 95 | 1019.7 | |
| 20260506115008 | 56 | 0.0 | 0.0 | 0.00 | 0.00 | 0.00 | 95 | 1019.7 | |
| 20260506114008 | 56 | 180 | 0.0 | 1.0 | 0.00 | 0.00 | 0.00 | 95 | 1019.6 |
| 20260506113006 | 56 | 0.0 | 0.0 | 0.00 | 0.00 | 0.00 | 95 | 1019.5 | |
| 20260506112007 | 56 | 0.0 | 0.0 | 0.00 | 0.00 | 0.00 | 95 | 1019.5 | |
| 20260506111005 | 56 | 0.0 | 0.0 | 0.00 | 0.00 | 0.00 | 95 | 1019.5 | |
| 20260506110008 | 56 | 0.0 | 0.0 | 0.00 | 0.00 | 0.00 | 95 | 1019.3 | |
| 20260506105009 | 56 | 0.0 | 0.0 | 0.00 | 0.00 | 0.00 | 95 | 1019.1 | |
| 20260506104009 | 56 | 0.0 | 0.0 | 0.00 | 0.00 | 0.00 | 95 | 1019.0 | |
| 20260506103008 | 56 | 0.0 | 0.0 | 0.00 | 0.00 | 0.00 | 95 | 1019.0 | |
| 20260506102009 | 56 | 0.0 | 0.0 | 0.00 | 0.00 | 0.00 | 94 | 1018.8 | |
| 20260506101012 | 56 | 0.0 | 0.0 | 0.00 | 0.00 | 0.00 | 95 | 1018.7 | |
| 20260506100007 | 56 | 0.0 | 0.0 | 0.00 | 0.00 | 0.00 | 94 | 1018.6 | |
| 20260506095008 | 56 | 0.0 | 0.0 | 0.00 | 0.00 | 0.00 | 94 | 1018.5 | |
| 20260506094008 | 56 | 0.0 | 0.0 | 0.00 | 0.00 | 0.00 | 94 | 1018.4 | |
| 20260506093009 | 56 | 0.0 | 0.0 | 0.00 | 0.00 | 0.00 | 93 | 1018.4 | |
| 20260506092006 | 56 | 0.0 | 0.0 | 0.00 | 0.00 | 0.00 | 93 | 1018.4 | |
| 20260506091006 | 57 | 180 | 0.0 | 1.0 | 0.00 | 0.00 | 0.00 | 94 | 1018.3 |
| 20260506090008 | 57 | 0.0 | 0.0 | 0.00 | 0.00 | 0.00 | 93 | 1018.3 | |
| 20260506085007 | 57 | 0.0 | 0.0 | 0.00 | 0.00 | 0.00 | 93 | 1018.3 | |
| 20260506084009 | 57 | 0.0 | 0.0 | 0.00 | 0.00 | 0.00 | 92 | 1018.3 | |
| 20260506083009 | 57 | 0.0 | 0.0 | 0.00 | 0.00 | 0.00 | 92 | 1018.2 | |
| 20260506082009 | 57 | 0.0 | 0.0 | 0.00 | 0.00 | 0.00 | 92 | 1018.2 | |
| 20260506081006 | 57 | 0.0 | 0.0 | 0.00 | 0.00 | 0.00 | 92 | 1018.2 | |
| 20260506073007 | 58 | 0.0 | 0.0 | 0.00 | 0.00 | 0.00 | 91 | 1017.9 | |
| 20260506072008 | 58 | 0.0 | 0.0 | 0.00 | 0.00 | 0.00 | 92 | 1017.8 | |
| 20260506071009 | 58 | 270 | 0.0 | 2.0 | 0.00 | 0.00 | 0.00 | 91 | 1017.8 |
| 20260506062006 | 58 | 0.0 | 0.0 | 0.00 | 0.00 | 0.00 | 92 | 1017.5 | |
| 20260506061008 | 58 | 0.0 | 0.0 | 0.00 | 0.00 | 0.00 | 93 | 1017.5 | |
| 20260506051007 | 58 | 0.0 | 0.0 | 0.00 | 0.00 | 0.00 | 90 | 1017.3 | |
| 20260506045010 | 57 | 0.0 | 0.0 | 0.00 | 0.00 | 0.00 | 91 | 1017.1 | |
| 20260506044009 | 56 | 0.0 | 0.0 | 0.00 | 0.00 | 0.00 | 93 | 1017.0 | |
| 20260506043008 | 56 | 0.0 | 0.0 | 0.00 | 0.00 | 0.00 | 92 | 1016.9 | |
| 20260506042006 | 56 | 0.0 | 0.0 | 0.00 | 0.00 | 0.00 | 91 | 1016.8 | |
| 20260506041009 | 56 | 0.0 | 0.0 | 0.00 | 0.00 | 0.00 | 87 | 1016.7 | |
| 20260506040012 | 57 | 0.0 | 0.0 | 0.00 | 0.00 | 0.00 | 86 | 1016.6 | |
| 20260506035011 | 58 | 0.0 | 0.0 | 0.00 | 0.00 | 0.00 | 84 | 1016.4 | |
| 20260506034007 | 59 | 0.0 | 0.0 | 0.00 | 0.00 | 0.00 | 83 | 1016.3 | |
| 20260506033009 | 60 | 0.0 | 0.0 | 0.00 | 0.00 | 0.00 | 80 | 1016.2 | |
| 20260506032008 | 61 | 0.0 | 0.0 | 0.00 | 0.00 | 0.00 | 79 | 1016.1 | |
| 20260506031008 | 62 | 231 | 0.0 | 2.0 | 0.00 | 0.00 | 0.00 | 78 | 1016.1 |
| 20260506030006 | 63 | 0.0 | 0.0 | 0.00 | 0.00 | 0.00 | 76 | 1016.1 |